Regional Weather Roundup
Issued by NWS Huntsville, AL

Home | Current Version | Previous Version | Text Only | Print | Product List | Glossary On
Versions: 1 2 3 4 5 6 7 8 9 10 11 12 13 14 15 16 17 18 19 20 21 22 23 24 25 26 27 28 29 30 31 32 33 34 35 36 37 38 39 40 41 42 43 44 45 46 47 48 49 50
000
ASUS44 KHUN 301410
RWRHUN

WEATHER ROUNDUP FOR THE TENNESSEE VALLEY
NATIONAL WEATHER SERVICE HUNTSVILLE AL
800 AM CST FRI JAN 30 2015

ALZ001>004-301500-
NORTHWEST ALABAMA

CITY           SKY/WX    TMP DP  RH WIND       PRES   REMARKS
SHOALS AIRPORT CLOUDY    39  25  57 N8        30.44R WCI  33
$$

ALZ005>007-016-301500-
NORTH CENTRAL ALABAMA

CITY           SKY/WX    TMP DP  RH WIND       PRES   REMARKS
DECATUR AP     CLOUDY    38  26  62 N17       30.44R WCI  28
HUNTSVILLE AP  PTSUNNY   39  26  59 N15G22    30.42R WCI  31
HUN NWS/UAH      N/A     38  24  58 N8          N/A  WCI  32
MERIDIANVILLE  CLOUDY    36  23  60 N14G20    30.42R WCI  27
REDSTONE ARSN  CLOUDY    38  26  63 N13G18    30.42R WCI  30
$$

ALZ008>010-301500-
NORTHEAST ALABAMA

CITY           SKY/WX    TMP DP  RH WIND       PRES   REMARKS
ALBERTVILLE    CLOUDY    36  32  87 N14G21    30.36R WCI  27
FORT PAYNE     CLOUDY    37  25  60 N7        30.36R WCI  32
SCOTTSBORO AP  CLOUDY    37  25  60 N10G22    30.41R WCI  30
VALLEY HEAD      N/A     37 N/A N/A MISG        N/A
$$

TNZ076-096-097-301500-
SOUTHEASTERN MIDDLE TENNESSEE

CITY           SKY/WX    TMP DP  RH WIND       PRES   REMARKS
TULLAHOMA      CLOUDY    32  23  69 N15       30.41R WCI  22
WINCHESTER     CLOUDY    34  25  69 N10       30.40R WCI  26
$$

...SURROUNDING SITES...

CITY           SKY/WX    TMP DP  RH WIND       PRES   REMARKS
ATLANTA        MOSUNNY   40  26  57 NW24G32   30.27R WCI  29
ANNISTON       CLOUDY    41  26  55 N10G18    30.37R
BIRMINGHAM     MOSUNNY   41  27  57 N14G21    30.40R
CHATTANOOGA    CLOUDY    39  25  57 N16G25    30.38R WCI  30
CORINTH        CLOUDY    37  27  65 N6        30.46R WCI  33
DALTON         PTSUNNY   37  28  70 N17G25    30.33S WCI  28
GADSDEN        CLOUDY   N/A N/A N/A N10G17    30.38R
GOLDEN TRNGL   SUNNY     37  28  70 N9        30.42R WCI  31
HALEYVILLE       N/A     37  28  70 N9G16     30.42R WCI  30
JACKSON TN     CLOUDY    37  25  61 NE10      30.49R WCI  30
LEWISBURG      CLOUDY    34  23  64 N14       30.43R WCI  25
MEMPHIS        MOSUNNY   38  28  67 N9        30.49R WCI  31
MURFREESBORO   CLOUDY    35  26  70 N12       30.44  WCI  27
NASHVILLE      CLOUDY    36  22  56 N14       30.46R WCI  27
OXFORD MS      FAIR      32  27  80 N9        30.47R WCI  24
ROME           CLOUDY    40  27  59 N14       30.34R WCI  32
SAVANNAH       CLOUDY    37  25  60 NE10      30.47R WCI  30
TUPELO         SUNNY     38  28  67 N9        30.44S WCI  31
TUSCALOOSA     SUNNY     39  31  72 NW3       30.41R
$$

...GULF COAST WEATHER...

CITY           SKY/WX    TMP DP  RH WIND       PRES   REMARKS
GULFPORT       MOSUNNY   47  37  68 NE16G24   30.36R
PASCAGOULA     MOSUNNY   46  35  65 N20G29    30.36R
MOBILE         PTSUNNY   43  32  65 N15G30    30.38R
GULF SHORES    SUNNY     46  38  72 N14G20    30.33R
PENSACOLA      PTSUNNY   47  37  68 N12G21    30.32R
DESTIN         SUNNY     50  38  63 N16G24    30.30R
PANAMA CITY    MOSUNNY   54  45  71 N12       30.26R
APPALACHICOLA  MOSUNNY   59  52  77 N13       30.23R
$$



USA.gov is the U.S. government's official web portal to all federal, state and local government web resources and services.